| time (UTC) | temp F | wind direction | speed MPH | gust MPH | rain 1hr in | rain 24hr in | rain mn in | humidity % | barometer mb |
| 20260503020024 | 43 | 0 | 0.0 | 0.0 | 0.00 | 0.00 | 0.00 | 82 | 1018.7 |
| 20260503014004 | 44 | 0 | 0.0 | 0.0 | 0.00 | 0.00 | 0.00 | 80 | 1018.6 |
| 20260503012026 | 45 | 184 | 0.0 | 1.0 | 0.00 | 0.00 | 0.00 | 78 | 1018.3 |
| 20260503010005 | 45 | 184 | 0.0 | 2.0 | 0.00 | 0.00 | 0.00 | 78 | 1018.3 |
| 20260503004025 | 46 | 184 | 0.0 | 1.0 | 0.00 | 0.00 | 0.00 | 77 | 1018.4 |
| 20260503002003 | 46 | 184 | 0.0 | 1.0 | 0.00 | 0.00 | 0.00 | 76 | 1018.5 |
| 20260503000003 | 47 | 184 | 0.0 | 1.0 | 0.00 | 0.00 | 0.00 | 75 | 1018.5 |
| 20260502234004 | 47 | 184 | 0.0 | 2.0 | 0.00 | 0.00 | 0.00 | 74 | 1018.7 |
| 20260502232005 | 48 | 184 | 0.0 | 1.0 | 0.00 | 0.00 | 0.00 | 73 | 1018.7 |
| 20260502230004 | 48 | 184 | 0.0 | 1.0 | 0.00 | 0.00 | 0.00 | 73 | 1018.8 |
| 20260502224024 | 49 | 0 | 0.0 | 0.0 | 0.00 | 0.00 | 0.00 | 72 | 1019.1 |
| 20260502222026 | 49 | 184 | 0.0 | 1.0 | 0.00 | 0.00 | 0.00 | 72 | 1019.2 |
| 20260502220003 | 50 | 184 | 0.0 | 2.0 | 0.00 | 0.00 | 0.00 | 71 | 1019.4 |
| 20260502214003 | 50 | 184 | 0.0 | 2.0 | 0.00 | 0.00 | 0.00 | 69 | 1019.2 |
| 20260502212003 | 51 | 184 | 0.0 | 2.0 | 0.00 | 0.00 | 0.00 | 67 | 1019.5 |
| 20260502210003 | 51 | 184 | 0.0 | 1.0 | 0.00 | 0.00 | 0.00 | 66 | 1019.7 |
| 20260502204003 | 51 | 184 | 0.0 | 1.0 | 0.00 | 0.00 | 0.00 | 66 | 1019.7 |
| 20260502202026 | 52 | 184 | 0.0 | 1.0 | 0.00 | 0.00 | 0.00 | 64 | 1019.7 |
| 20260502200003 | 53 | 184 | 0.0 | 2.0 | 0.00 | 0.00 | 0.00 | 62 | 1019.8 |
| 20260502194024 | 54 | 184 | 0.0 | 2.0 | 0.00 | 0.00 | 0.00 | 60 | 1019.7 |
| 20260502192003 | 56 | 184 | 0.0 | 1.0 | 0.00 | 0.00 | 0.00 | 59 | 1019.8 |
| 20260502190005 | 57 | 184 | 0.0 | 1.0 | 0.00 | 0.00 | 0.00 | 59 | 1019.7 |
| 20260502184003 | 59 | 184 | 0.0 | 2.0 | 0.00 | 0.00 | 0.00 | 57 | 1019.7 |
| 20260502182004 | 62 | 184 | 0.0 | 1.0 | 0.00 | 0.00 | 0.00 | 53 | 1019.6 |
| 20260502164003 | 74 | 184 | 0.0 | 5.0 | 0.00 | 0.00 | 0.00 | 31 | 1019.9 |
| 20260502162003 | 74 | 184 | 2.0 | 5.0 | 0.00 | 0.00 | 0.00 | 29 | 1020.0 |
| 20260502152003 | 76 | 184 | 2.0 | 5.0 | 0.00 | 0.00 | 0.00 | 31 | 1020.5 |
| 20260502122004 | 75 | 176 | 2.0 | 8.0 | 0.00 | 0.00 | 0.00 | 29 | 1022.3 |
| 20260502114006 | 74 | 175 | 1.0 | 6.0 | 0.00 | 0.00 | 0.00 | 34 | 1022.7 |
| 20260502112004 | 74 | 175 | 1.0 | 5.0 | 0.00 | 0.00 | 0.00 | 34 | 1023.1 |
| 20260502110004 | 72 | 181 | 1.0 | 3.0 | 0.00 | 0.00 | 0.00 | 33 | 1023.1 |
| 20260502104004 | 72 | 165 | 2.0 | 8.0 | 0.00 | 0.00 | 0.00 | 36 | 1023.3 |
| 20260502102006 | 71 | 158 | 2.0 | 7.0 | 0.00 | 0.00 | 0.00 | 34 | 1023.6 |
| 20260502070004 | 61 | 358 | 1.0 | 4.0 | 0.00 | 0.00 | 0.00 | 56 | 1024.9 |
| 20260502064004 | 60 | 340 | 0.0 | 2.0 | 0.00 | 0.00 | 0.00 | 60 | 1024.9 |
| 20260502062027 | 58 | 315 | 0.0 | 1.0 | 0.00 | 0.00 | 0.00 | 62 | 1025.0 |
| 20260502060006 | 56 | 315 | 1.0 | 4.0 | 0.00 | 0.00 | 0.00 | 64 | 1025.0 |
| 20260502054004 | 53 | 315 | 0.0 | 2.0 | 0.00 | 0.00 | 0.00 | 71 | 1024.9 |
| 20260502052004 | 50 | 0 | 0.0 | 0.0 | 0.00 | 0.00 | 0.00 | 77 | 1024.7 |
| 20260502050025 | 47 | 315 | 0.0 | 2.0 | 0.00 | 0.00 | 0.00 | 82 | 1024.6 |
| 20260502044004 | 45 | 315 | 0.0 | 2.0 | 0.00 | 0.00 | 0.00 | 86 | 1024.6 |
| 20260502042004 | 42 | 315 | 0.0 | 1.0 | 0.00 | 0.00 | 0.00 | 90 | 1024.6 |
| 20260502040025 | 41 | 315 | 0.0 | 1.0 | 0.00 | 0.00 | 0.00 | 89 | 1024.4 |
| 20260502034005 | 41 | 0 | 0.0 | 0.0 | 0.00 | 0.00 | 0.00 | 88 | 1024.3 |
| 20260502032005 | 41 | 0 | 0.0 | 0.0 | 0.00 | 0.00 | 0.00 | 86 | 1024.4 |
| 20260502030005 | 42 | 0 | 0.0 | 0.0 | 0.00 | 0.00 | 0.00 | 85 | 1024.4 |
| 20260502024004 | 43 | 0 | 0.0 | 0.0 | 0.00 | 0.00 | 0.00 | 84 | 1024.6 |
| 20260502022005 | 44 | 315 | 0.0 | 1.0 | 0.00 | 0.00 | 0.00 | 82 | 1024.6 |